Regional Weather Roundup
Issued by NWS Goodland, KS

Home | Current Version | Previous Version | Text Only | Print | Product List | Glossary On
Versions: 1 2 3 4 5 6 7 8 9 10 11 12 13 14 15 16 17 18 19 20 21 22 23 24 25 26 27 28 29 30 31 32 33 34 35 36 37 38 39 40 41 42 43 44 45 46 47 48 49 50
000
ASUS43 KGLD 080208
RWRGLD

GOODLAND FORECAST AREA HOURLY WEATHER ROUNDUP
NATIONAL WEATHER SERVICE GOODLAND KS
700 PM MST WED DEC 07 2016

...OFFICIAL OBSERVATIONS...

CITY           SKY/WX    TMP DP  RH WIND       PRES   REMARKS
GOODLAND KS    CLEAR      5   1  83 NW10      30.42R WCI -10
HILL CITY KS   CLEAR     13   8  81 W7        30.49R
IMPERIAL NEB   CLEAR      6   0  76 NW8       30.44R
MCCOOK NEB     PTCLDY     9   4  80 NW9       30.47R
AKRON CO       CLOUDY     0  -5  79 NW12      30.37R WCI -17
BURLINGTON CO  CLEAR      4  -3  73 NW10      30.40R WCI -11
LIMON CO       CLOUDY     8   3  80 NW9       30.34R
$$

...UNOFFICIAL OBSERVATIONS...

CITY           SKY/WX    TMP DP  RH WIND       PRES   REMARKS
COLBY KS       CLEAR     10   7  85 NW8       30.46R
LENORA KS        N/A     11  32 100 MISG        N/A
NORTON KS      CLEAR     12   7  79 W12       30.46R WCI  -2
SHARON SPRINGS   N/A      9   6  85 NW15        N/A  WCI  -8
TRENTON NEB      N/A      4  32 100 NW6         N/A
KIT CARSON CO    N/A      9   2  74 CALM        N/A
YUMA CO        FAIR      -4  -8  84 W9        30.40R
$$



USA.gov is the U.S. government's official web portal to all federal, state and local government web resources and services.